<?xml version="1.0" encoding="UTF-8" standalone="no" ?>
<gpx xmlns="http://www.topografix.com/GPX/1/1" xmlns:xsi="http://www.w3.org/2001/XMLSchema-instance" xsi:schemaLocation="http://www.topografix.com/GPX/1/1 http://www.topografix.com/GPX/1/1/gpx.xsd" version="1.1" creator="VisuGPX - https://www.visugpx.com">
  <metadata>
    <name>Montgilbert Matichard 33 kms</name>
    <desc><![CDATA[Boucle au depart du chateau de mongilbert ]]></desc>
  </metadata>
  <trk>
    <name><![CDATA[Montgilbert Matichard 33kms]]></name>
    <trkseg>
      <trkpt lat="46.03716" lon="3.62366">
        <ele>539</ele>
        <time>2009-12-13T12:00:23Z</time>
      </trkpt>
      <trkpt lat="46.03766" lon="3.6237">
        <ele>545</ele>
        <time>2009-12-13T12:00:23Z</time>
      </trkpt>
      <trkpt lat="46.03811" lon="3.62371">
        <ele>553</ele>
        <time>2009-12-13T12:00:23Z</time>
      </trkpt>
      <trkpt lat="46.03866" lon="3.62414">
        <ele>550</ele>
        <time>2009-12-13T12:00:23Z</time>
      </trkpt>
      <trkpt lat="46.03914" lon="3.62403">
        <ele>551</ele>
        <time>2009-12-13T12:00:23Z</time>
      </trkpt>
      <trkpt lat="46.03955" lon="3.62368">
        <ele>536</ele>
        <time>2009-12-13T12:00:23Z</time>
      </trkpt>
      <trkpt lat="46.03991" lon="3.62304">
        <ele>508</ele>
        <time>2009-12-13T12:00:23Z</time>
      </trkpt>
      <trkpt lat="46.03981" lon="3.62223">
        <ele>507</ele>
        <time>2009-12-13T12:00:23Z</time>
      </trkpt>
      <trkpt lat="46.03973" lon="3.62171">
        <ele>505</ele>
        <time>2009-12-13T12:00:23Z</time>
      </trkpt>
      <trkpt lat="46.0394" lon="3.62087">
        <ele>502</ele>
        <time>2009-12-13T12:00:23Z</time>
      </trkpt>
      <trkpt lat="46.03927" lon="3.62025">
        <ele>498</ele>
        <time>2009-12-13T12:00:23Z</time>
      </trkpt>
      <trkpt lat="46.0384" lon="3.61968">
        <ele>498</ele>
        <time>2009-12-13T12:00:23Z</time>
      </trkpt>
      <trkpt lat="46.03789" lon="3.61928">
        <ele>494</ele>
        <time>2009-12-13T12:00:23Z</time>
      </trkpt>
      <trkpt lat="46.03757" lon="3.61898">
        <ele>491</ele>
        <time>2009-12-13T12:00:23Z</time>
      </trkpt>
      <trkpt lat="46.03741" lon="3.61804">
        <ele>487</ele>
        <time>2009-12-13T12:00:23Z</time>
      </trkpt>
      <trkpt lat="46.03748" lon="3.61753">
        <ele>486</ele>
        <time>2009-12-13T12:00:23Z</time>
      </trkpt>
      <trkpt lat="46.03764" lon="3.61701">
        <ele>485</ele>
        <time>2009-12-13T12:00:23Z</time>
      </trkpt>
      <trkpt lat="46.03773" lon="3.61673">
        <ele>484</ele>
        <time>2009-12-13T12:00:23Z</time>
      </trkpt>
      <trkpt lat="46.03731" lon="3.6163">
        <ele>489</ele>
        <time>2009-12-13T12:00:23Z</time>
      </trkpt>
      <trkpt lat="46.03657" lon="3.61596">
        <ele>501</ele>
        <time>2009-12-13T12:00:23Z</time>
      </trkpt>
      <trkpt lat="46.03572" lon="3.61561">
        <ele>516</ele>
        <time>2009-12-13T12:00:23Z</time>
      </trkpt>
      <trkpt lat="46.03532" lon="3.61557">
        <ele>522</ele>
        <time>2009-12-13T12:00:23Z</time>
      </trkpt>
      <trkpt lat="46.03444" lon="3.61558">
        <ele>531</ele>
        <time>2009-12-13T12:00:23Z</time>
      </trkpt>
      <trkpt lat="46.03417" lon="3.61551">
        <ele>534</ele>
        <time>2009-12-13T12:00:23Z</time>
      </trkpt>
      <trkpt lat="46.03364" lon="3.61521">
        <ele>541</ele>
        <time>2009-12-13T12:00:23Z</time>
      </trkpt>
      <trkpt lat="46.03346" lon="3.61517">
        <ele>542</ele>
        <time>2009-12-13T12:00:23Z</time>
      </trkpt>
      <trkpt lat="46.03221" lon="3.61589">
        <ele>549</ele>
        <time>2009-12-13T12:00:23Z</time>
      </trkpt>
      <trkpt lat="46.03194" lon="3.61624">
        <ele>554</ele>
        <time>2009-12-13T12:00:23Z</time>
      </trkpt>
      <trkpt lat="46.03182" lon="3.61675">
        <ele>557</ele>
        <time>2009-12-13T12:00:23Z</time>
      </trkpt>
      <trkpt lat="46.03154" lon="3.61707">
        <ele>562</ele>
        <time>2009-12-13T12:00:23Z</time>
      </trkpt>
      <trkpt lat="46.03132" lon="3.61732">
        <ele>565</ele>
        <time>2009-12-13T12:00:23Z</time>
      </trkpt>
      <trkpt lat="46.03082" lon="3.61747">
        <ele>571</ele>
        <time>2009-12-13T12:00:23Z</time>
      </trkpt>
      <trkpt lat="46.03039" lon="3.6173">
        <ele>574</ele>
        <time>2009-12-13T12:00:23Z</time>
      </trkpt>
      <trkpt lat="46.02963" lon="3.61725">
        <ele>583</ele>
        <time>2009-12-13T12:00:23Z</time>
      </trkpt>
      <trkpt lat="46.02941" lon="3.61724">
        <ele>586</ele>
        <time>2009-12-13T12:00:23Z</time>
      </trkpt>
      <trkpt lat="46.0292" lon="3.61775">
        <ele>592</ele>
        <time>2009-12-13T12:00:23Z</time>
      </trkpt>
      <trkpt lat="46.02897" lon="3.61797">
        <ele>595</ele>
        <time>2009-12-13T12:00:23Z</time>
      </trkpt>
      <trkpt lat="46.02838" lon="3.61832">
        <ele>598</ele>
        <time>2009-12-13T12:00:23Z</time>
      </trkpt>
      <trkpt lat="46.02714" lon="3.61874">
        <ele>595</ele>
        <time>2009-12-13T12:00:23Z</time>
      </trkpt>
      <trkpt lat="46.02648" lon="3.61895">
        <ele>594</ele>
        <time>2009-12-13T12:00:23Z</time>
      </trkpt>
      <trkpt lat="46.02599" lon="3.61884">
        <ele>593</ele>
        <time>2009-12-13T12:00:23Z</time>
      </trkpt>
      <trkpt lat="46.02519" lon="3.6184">
        <ele>586</ele>
        <time>2009-12-13T12:00:23Z</time>
      </trkpt>
      <trkpt lat="46.02442" lon="3.61835">
        <ele>578</ele>
        <time>2009-12-13T12:00:23Z</time>
      </trkpt>
      <trkpt lat="46.02361" lon="3.61859">
        <ele>574</ele>
        <time>2009-12-13T12:00:23Z</time>
      </trkpt>
      <trkpt lat="46.02323" lon="3.61871">
        <ele>573</ele>
        <time>2009-12-13T12:00:23Z</time>
      </trkpt>
      <trkpt lat="46.02266" lon="3.61938">
        <ele>569</ele>
        <time>2009-12-13T12:00:23Z</time>
      </trkpt>
      <trkpt lat="46.02238" lon="3.61973">
        <ele>565</ele>
        <time>2009-12-13T12:00:23Z</time>
      </trkpt>
      <trkpt lat="46.02188" lon="3.62065">
        <ele>559</ele>
        <time>2009-12-13T12:00:23Z</time>
      </trkpt>
      <trkpt lat="46.02122" lon="3.62125">
        <ele>552</ele>
        <time>2009-12-13T12:00:23Z</time>
      </trkpt>
      <trkpt lat="46.02067" lon="3.62149">
        <ele>544</ele>
        <time>2009-12-13T12:00:23Z</time>
      </trkpt>
      <trkpt lat="46.02075" lon="3.6224">
        <ele>542</ele>
        <time>2009-12-13T12:00:23Z</time>
      </trkpt>
      <trkpt lat="46.02075" lon="3.62272">
        <ele>541</ele>
        <time>2009-12-13T12:00:23Z</time>
      </trkpt>
      <trkpt lat="46.02027" lon="3.62339">
        <ele>528</ele>
        <time>2009-12-13T12:00:23Z</time>
      </trkpt>
      <trkpt lat="46.01961" lon="3.6237">
        <ele>512</ele>
        <time>2009-12-13T12:00:23Z</time>
      </trkpt>
      <trkpt lat="46.01916" lon="3.62414">
        <ele>495</ele>
        <time>2009-12-13T12:00:23Z</time>
      </trkpt>
      <trkpt lat="46.01968" lon="3.62418">
        <ele>504</ele>
        <time>2009-12-13T12:00:23Z</time>
      </trkpt>
      <trkpt lat="46.02015" lon="3.62419">
        <ele>509</ele>
        <time>2009-12-13T12:00:23Z</time>
      </trkpt>
      <trkpt lat="46.02046" lon="3.6242">
        <ele>513</ele>
        <time>2009-12-13T12:00:23Z</time>
      </trkpt>
      <trkpt lat="46.02093" lon="3.6247">
        <ele>514</ele>
        <time>2009-12-13T12:00:23Z</time>
      </trkpt>
      <trkpt lat="46.02131" lon="3.62529">
        <ele>513</ele>
        <time>2009-12-13T12:00:23Z</time>
      </trkpt>
      <trkpt lat="46.02181" lon="3.62623">
        <ele>517</ele>
        <time>2009-12-13T12:00:23Z</time>
      </trkpt>
      <trkpt lat="46.02214" lon="3.62702">
        <ele>525</ele>
        <time>2009-12-13T12:00:23Z</time>
      </trkpt>
      <trkpt lat="46.02247" lon="3.62738">
        <ele>525</ele>
        <time>2009-12-13T12:00:23Z</time>
      </trkpt>
      <trkpt lat="46.02251" lon="3.628">
        <ele>535</ele>
        <time>2009-12-13T12:00:23Z</time>
      </trkpt>
      <trkpt lat="46.02251" lon="3.62851">
        <ele>539</ele>
        <time>2009-12-13T12:00:23Z</time>
      </trkpt>
      <trkpt lat="46.02232" lon="3.62889">
        <ele>542</ele>
        <time>2009-12-13T12:00:23Z</time>
      </trkpt>
      <trkpt lat="46.02153" lon="3.62917">
        <ele>553</ele>
        <time>2009-12-13T12:00:23Z</time>
      </trkpt>
      <trkpt lat="46.02095" lon="3.62909">
        <ele>560</ele>
        <time>2009-12-13T12:00:23Z</time>
      </trkpt>
      <trkpt lat="46.02065" lon="3.62928">
        <ele>564</ele>
        <time>2009-12-13T12:00:23Z</time>
      </trkpt>
      <trkpt lat="46.02009" lon="3.62949">
        <ele>571</ele>
        <time>2009-12-13T12:00:23Z</time>
      </trkpt>
      <trkpt lat="46.01959" lon="3.6299">
        <ele>579</ele>
        <time>2009-12-13T12:00:23Z</time>
      </trkpt>
      <trkpt lat="46.01921" lon="3.6294">
        <ele>579</ele>
        <time>2009-12-13T12:00:23Z</time>
      </trkpt>
      <trkpt lat="46.01821" lon="3.62835">
        <ele>582</ele>
        <time>2009-12-13T12:00:23Z</time>
      </trkpt>
      <trkpt lat="46.01777" lon="3.62759">
        <ele>583</ele>
        <time>2009-12-13T12:00:23Z</time>
      </trkpt>
      <trkpt lat="46.01747" lon="3.62658">
        <ele>581</ele>
        <time>2009-12-13T12:00:23Z</time>
      </trkpt>
      <trkpt lat="46.01696" lon="3.62564">
        <ele>579</ele>
        <time>2009-12-13T12:00:23Z</time>
      </trkpt>
      <trkpt lat="46.0162" lon="3.62494">
        <ele>584</ele>
        <time>2009-12-13T12:00:23Z</time>
      </trkpt>
      <trkpt lat="46.01563" lon="3.62415">
        <ele>577</ele>
        <time>2009-12-13T12:00:23Z</time>
      </trkpt>
      <trkpt lat="46.01488" lon="3.62436">
        <ele>590</ele>
        <time>2009-12-13T12:00:23Z</time>
      </trkpt>
      <trkpt lat="46.01438" lon="3.62499">
        <ele>598</ele>
        <time>2009-12-13T12:00:23Z</time>
      </trkpt>
      <trkpt lat="46.01426" lon="3.62586">
        <ele>609</ele>
        <time>2009-12-13T12:00:23Z</time>
      </trkpt>
      <trkpt lat="46.01426" lon="3.62754">
        <ele>625</ele>
        <time>2009-12-13T12:00:23Z</time>
      </trkpt>
      <trkpt lat="46.01429" lon="3.62935">
        <ele>636</ele>
        <time>2009-12-13T12:00:23Z</time>
      </trkpt>
      <trkpt lat="46.01389" lon="3.63054">
        <ele>635</ele>
        <time>2009-12-13T12:00:23Z</time>
      </trkpt>
      <trkpt lat="46.01352" lon="3.63169">
        <ele>634</ele>
        <time>2009-12-13T12:00:23Z</time>
      </trkpt>
      <trkpt lat="46.01333" lon="3.63269">
        <ele>631</ele>
        <time>2009-12-13T12:00:23Z</time>
      </trkpt>
      <trkpt lat="46.01333" lon="3.63424">
        <ele>625</ele>
        <time>2009-12-13T12:00:23Z</time>
      </trkpt>
      <trkpt lat="46.01353" lon="3.63631">
        <ele>621</ele>
        <time>2009-12-13T12:00:23Z</time>
      </trkpt>
      <trkpt lat="46.01366" lon="3.63689">
        <ele>619</ele>
        <time>2009-12-13T12:00:23Z</time>
      </trkpt>
      <trkpt lat="46.01434" lon="3.63797">
        <ele>622</ele>
        <time>2009-12-13T12:00:23Z</time>
      </trkpt>
      <trkpt lat="46.01501" lon="3.63912">
        <ele>627</ele>
        <time>2009-12-13T12:00:23Z</time>
      </trkpt>
      <trkpt lat="46.01601" lon="3.64008">
        <ele>644</ele>
        <time>2009-12-13T12:00:23Z</time>
      </trkpt>
      <trkpt lat="46.01673" lon="3.64136">
        <ele>658</ele>
        <time>2009-12-13T12:00:23Z</time>
      </trkpt>
      <trkpt lat="46.01697" lon="3.64256">
        <ele>662</ele>
        <time>2009-12-13T12:00:23Z</time>
      </trkpt>
      <trkpt lat="46.01732" lon="3.6435">
        <ele>661</ele>
        <time>2009-12-13T12:00:23Z</time>
      </trkpt>
      <trkpt lat="46.01721" lon="3.64502">
        <ele>668</ele>
        <time>2009-12-13T12:00:23Z</time>
      </trkpt>
      <trkpt lat="46.01719" lon="3.6466">
        <ele>674</ele>
        <time>2009-12-13T12:00:23Z</time>
      </trkpt>
      <trkpt lat="46.01706" lon="3.64824">
        <ele>671</ele>
        <time>2009-12-13T12:00:23Z</time>
      </trkpt>
      <trkpt lat="46.01673" lon="3.64972">
        <ele>670</ele>
        <time>2009-12-13T12:00:23Z</time>
      </trkpt>
      <trkpt lat="46.0165" lon="3.65162">
        <ele>655</ele>
        <time>2009-12-13T12:00:23Z</time>
      </trkpt>
      <trkpt lat="46.01598" lon="3.65183">
        <ele>659</ele>
        <time>2009-12-13T12:00:23Z</time>
      </trkpt>
      <trkpt lat="46.01522" lon="3.65181">
        <ele>664</ele>
        <time>2009-12-13T12:00:23Z</time>
      </trkpt>
      <trkpt lat="46.0149" lon="3.65171">
        <ele>667</ele>
        <time>2009-12-13T12:00:23Z</time>
      </trkpt>
      <trkpt lat="46.01452" lon="3.6518">
        <ele>666</ele>
        <time>2009-12-13T12:00:23Z</time>
      </trkpt>
      <trkpt lat="46.01402" lon="3.65207">
        <ele>665</ele>
        <time>2009-12-13T12:00:23Z</time>
      </trkpt>
      <trkpt lat="46.0136" lon="3.65203">
        <ele>668</ele>
        <time>2009-12-13T12:00:23Z</time>
      </trkpt>
      <trkpt lat="46.01286" lon="3.65172">
        <ele>679</ele>
        <time>2009-12-13T12:00:23Z</time>
      </trkpt>
      <trkpt lat="46.01212" lon="3.65174">
        <ele>687</ele>
        <time>2009-12-13T12:00:23Z</time>
      </trkpt>
      <trkpt lat="46.01141" lon="3.65246">
        <ele>698</ele>
        <time>2009-12-13T12:00:23Z</time>
      </trkpt>
      <trkpt lat="46.01075" lon="3.65322">
        <ele>700</ele>
        <time>2009-12-13T12:00:23Z</time>
      </trkpt>
      <trkpt lat="46.01003" lon="3.6535">
        <ele>702</ele>
        <time>2009-12-13T12:00:23Z</time>
      </trkpt>
      <trkpt lat="46.00882" lon="3.65469">
        <ele>703</ele>
        <time>2009-12-13T12:00:23Z</time>
      </trkpt>
      <trkpt lat="46.0075" lon="3.65589">
        <ele>709</ele>
        <time>2009-12-13T12:00:23Z</time>
      </trkpt>
      <trkpt lat="46.00619" lon="3.65608">
        <ele>718</ele>
        <time>2009-12-13T12:00:23Z</time>
      </trkpt>
      <trkpt lat="46.00592" lon="3.65646">
        <ele>721</ele>
        <time>2009-12-13T12:00:23Z</time>
      </trkpt>
      <trkpt lat="46.0055" lon="3.65787">
        <ele>724</ele>
        <time>2009-12-13T12:00:23Z</time>
      </trkpt>
      <trkpt lat="46.00545" lon="3.65813">
        <ele>725</ele>
        <time>2009-12-13T12:00:23Z</time>
      </trkpt>
      <trkpt lat="46.00559" lon="3.65959">
        <ele>727</ele>
        <time>2009-12-13T12:00:23Z</time>
      </trkpt>
      <trkpt lat="46.00558" lon="3.66039">
        <ele>730</ele>
        <time>2009-12-13T12:00:23Z</time>
      </trkpt>
      <trkpt lat="46.00479" lon="3.66254">
        <ele>743</ele>
        <time>2009-12-13T12:00:23Z</time>
      </trkpt>
      <trkpt lat="46.00387" lon="3.66416">
        <ele>747</ele>
        <time>2009-12-13T12:00:23Z</time>
      </trkpt>
      <trkpt lat="46.00355" lon="3.66467">
        <ele>748</ele>
        <time>2009-12-13T12:00:23Z</time>
      </trkpt>
      <trkpt lat="46.00297" lon="3.66462">
        <ele>750</ele>
        <time>2009-12-13T12:00:23Z</time>
      </trkpt>
      <trkpt lat="46.00222" lon="3.66483">
        <ele>754</ele>
        <time>2009-12-13T12:00:23Z</time>
      </trkpt>
      <trkpt lat="46.0017" lon="3.66492">
        <ele>760</ele>
        <time>2009-12-13T12:00:23Z</time>
      </trkpt>
      <trkpt lat="46.00078" lon="3.6647">
        <ele>767</ele>
        <time>2009-12-13T12:00:23Z</time>
      </trkpt>
      <trkpt lat="45.99978" lon="3.66429">
        <ele>760</ele>
        <time>2009-12-13T12:00:23Z</time>
      </trkpt>
      <trkpt lat="45.99833" lon="3.665">
        <ele>761</ele>
        <time>2009-12-13T12:00:23Z</time>
      </trkpt>
      <trkpt lat="45.99731" lon="3.66558">
        <ele>763</ele>
        <time>2009-12-13T12:00:23Z</time>
      </trkpt>
      <trkpt lat="45.9966" lon="3.66625">
        <ele>772</ele>
        <time>2009-12-13T12:00:23Z</time>
      </trkpt>
      <trkpt lat="45.99679" lon="3.66751">
        <ele>778</ele>
        <time>2009-12-13T12:00:23Z</time>
      </trkpt>
      <trkpt lat="45.9967" lon="3.66928">
        <ele>772</ele>
        <time>2009-12-13T12:00:23Z</time>
      </trkpt>
      <trkpt lat="45.9964" lon="3.67044">
        <ele>763</ele>
        <time>2009-12-13T12:00:23Z</time>
      </trkpt>
      <trkpt lat="45.99524" lon="3.67154">
        <ele>756</ele>
        <time>2009-12-13T12:00:23Z</time>
      </trkpt>
      <trkpt lat="45.99474" lon="3.67185">
        <ele>749</ele>
        <time>2009-12-13T12:00:23Z</time>
      </trkpt>
      <trkpt lat="45.9939" lon="3.67205">
        <ele>743</ele>
        <time>2009-12-13T12:00:23Z</time>
      </trkpt>
      <trkpt lat="45.99297" lon="3.67264">
        <ele>741</ele>
        <time>2009-12-13T12:00:23Z</time>
      </trkpt>
      <trkpt lat="45.99259" lon="3.67309">
        <ele>738</ele>
        <time>2009-12-13T12:00:23Z</time>
      </trkpt>
      <trkpt lat="45.9926" lon="3.67389">
        <ele>741</ele>
        <time>2009-12-13T12:00:23Z</time>
      </trkpt>
      <trkpt lat="45.99298" lon="3.6759">
        <ele>740</ele>
        <time>2009-12-13T12:00:23Z</time>
      </trkpt>
      <trkpt lat="45.99296" lon="3.67729">
        <ele>738</ele>
        <time>2009-12-13T12:00:23Z</time>
      </trkpt>
      <trkpt lat="45.99261" lon="3.67851">
        <ele>717</ele>
        <time>2009-12-13T12:00:23Z</time>
      </trkpt>
      <trkpt lat="45.99127" lon="3.67974">
        <ele>692</ele>
        <time>2009-12-13T12:00:23Z</time>
      </trkpt>
      <trkpt lat="45.99093" lon="3.68002">
        <ele>693</ele>
        <time>2009-12-13T12:00:23Z</time>
      </trkpt>
      <trkpt lat="45.99082" lon="3.68153">
        <ele>685</ele>
        <time>2009-12-13T12:00:23Z</time>
      </trkpt>
      <trkpt lat="45.99122" lon="3.68177">
        <ele>680</ele>
        <time>2009-12-13T12:00:23Z</time>
      </trkpt>
      <trkpt lat="45.99198" lon="3.68217">
        <ele>685</ele>
        <time>2009-12-13T12:00:23Z</time>
      </trkpt>
      <trkpt lat="45.99229" lon="3.6827">
        <ele>694</ele>
        <time>2009-12-13T12:00:23Z</time>
      </trkpt>
      <trkpt lat="45.99228" lon="3.68354">
        <ele>705</ele>
        <time>2009-12-13T12:00:23Z</time>
      </trkpt>
      <trkpt lat="45.99218" lon="3.68431">
        <ele>714</ele>
        <time>2009-12-13T12:00:23Z</time>
      </trkpt>
      <trkpt lat="45.9927" lon="3.68448">
        <ele>722</ele>
        <time>2009-12-13T12:00:23Z</time>
      </trkpt>
      <trkpt lat="45.99306" lon="3.68462">
        <ele>728</ele>
        <time>2009-12-13T12:00:23Z</time>
      </trkpt>
      <trkpt lat="45.99344" lon="3.68463">
        <ele>733</ele>
        <time>2009-12-13T12:00:23Z</time>
      </trkpt>
      <trkpt lat="45.9942" lon="3.68462">
        <ele>741</ele>
        <time>2009-12-13T12:00:23Z</time>
      </trkpt>
      <trkpt lat="45.99459" lon="3.68453">
        <ele>741</ele>
        <time>2009-12-13T12:00:23Z</time>
      </trkpt>
      <trkpt lat="45.99515" lon="3.68461">
        <ele>744</ele>
        <time>2009-12-13T12:00:23Z</time>
      </trkpt>
      <trkpt lat="45.99543" lon="3.6851">
        <ele>753</ele>
        <time>2009-12-13T12:00:23Z</time>
      </trkpt>
      <trkpt lat="45.99586" lon="3.68524">
        <ele>753</ele>
        <time>2009-12-13T12:00:23Z</time>
      </trkpt>
      <trkpt lat="45.99622" lon="3.6856">
        <ele>756</ele>
        <time>2009-12-13T12:00:23Z</time>
      </trkpt>
      <trkpt lat="45.99714" lon="3.68698">
        <ele>765</ele>
        <time>2009-12-13T12:00:23Z</time>
      </trkpt>
      <trkpt lat="45.99818" lon="3.68849">
        <ele>782</ele>
        <time>2009-12-13T12:00:23Z</time>
      </trkpt>
      <trkpt lat="45.99898" lon="3.68987">
        <ele>793</ele>
        <time>2009-12-13T12:00:23Z</time>
      </trkpt>
      <trkpt lat="45.9994" lon="3.69194">
        <ele>779</ele>
        <time>2009-12-13T12:00:23Z</time>
      </trkpt>
      <trkpt lat="45.99899" lon="3.69255">
        <ele>779</ele>
        <time>2009-12-13T12:00:23Z</time>
      </trkpt>
      <trkpt lat="45.99844" lon="3.69331">
        <ele>773</ele>
        <time>2009-12-13T12:00:23Z</time>
      </trkpt>
      <trkpt lat="45.99794" lon="3.69394">
        <ele>769</ele>
        <time>2009-12-13T12:00:23Z</time>
      </trkpt>
      <trkpt lat="45.99764" lon="3.69461">
        <ele>767</ele>
        <time>2009-12-13T12:00:23Z</time>
      </trkpt>
      <trkpt lat="45.9977" lon="3.69542">
        <ele>763</ele>
        <time>2009-12-13T12:00:23Z</time>
      </trkpt>
      <trkpt lat="45.99784" lon="3.69655">
        <ele>762</ele>
        <time>2009-12-13T12:00:23Z</time>
      </trkpt>
      <trkpt lat="45.9983" lon="3.69773">
        <ele>754</ele>
        <time>2009-12-13T12:00:23Z</time>
      </trkpt>
      <trkpt lat="45.99861" lon="3.69825">
        <ele>745</ele>
        <time>2009-12-13T12:00:23Z</time>
      </trkpt>
      <trkpt lat="45.99851" lon="3.69912">
        <ele>742</ele>
        <time>2009-12-13T12:00:23Z</time>
      </trkpt>
      <trkpt lat="45.99902" lon="3.69942">
        <ele>743</ele>
        <time>2009-12-13T12:00:23Z</time>
      </trkpt>
      <trkpt lat="46.00005" lon="3.69993">
        <ele>750</ele>
        <time>2009-12-13T12:00:23Z</time>
      </trkpt>
      <trkpt lat="46.00041" lon="3.69991">
        <ele>754</ele>
        <time>2009-12-13T12:00:23Z</time>
      </trkpt>
      <trkpt lat="46.00116" lon="3.69951">
        <ele>761</ele>
        <time>2009-12-13T12:00:23Z</time>
      </trkpt>
      <trkpt lat="46.00193" lon="3.69888">
        <ele>756</ele>
        <time>2009-12-13T12:00:23Z</time>
      </trkpt>
      <trkpt lat="46.00276" lon="3.69877">
        <ele>752</ele>
        <time>2009-12-13T12:00:23Z</time>
      </trkpt>
      <trkpt lat="46.00339" lon="3.69872">
        <ele>743</ele>
        <time>2009-12-13T12:00:23Z</time>
      </trkpt>
      <trkpt lat="46.00375" lon="3.69893">
        <ele>747</ele>
        <time>2009-12-13T12:00:23Z</time>
      </trkpt>
      <trkpt lat="46.00446" lon="3.69794">
        <ele>745</ele>
        <time>2009-12-13T12:00:23Z</time>
      </trkpt>
      <trkpt lat="46.00501" lon="3.69721">
        <ele>745</ele>
        <time>2009-12-13T12:00:23Z</time>
      </trkpt>
      <trkpt lat="46.00553" lon="3.69661">
        <ele>749</ele>
        <time>2009-12-13T12:00:23Z</time>
      </trkpt>
      <trkpt lat="46.00613" lon="3.69582">
        <ele>750</ele>
        <time>2009-12-13T12:00:23Z</time>
      </trkpt>
      <trkpt lat="46.00697" lon="3.69481">
        <ele>747</ele>
        <time>2009-12-13T12:00:23Z</time>
      </trkpt>
      <trkpt lat="46.00716" lon="3.69439">
        <ele>744</ele>
        <time>2009-12-13T12:00:23Z</time>
      </trkpt>
      <trkpt lat="46.00831" lon="3.69416">
        <ele>739</ele>
        <time>2009-12-13T12:00:23Z</time>
      </trkpt>
      <trkpt lat="46.00954" lon="3.69423">
        <ele>726</ele>
        <time>2009-12-13T12:00:23Z</time>
      </trkpt>
      <trkpt lat="46.01053" lon="3.6948">
        <ele>725</ele>
        <time>2009-12-13T12:00:23Z</time>
      </trkpt>
      <trkpt lat="46.01117" lon="3.6934">
        <ele>721</ele>
        <time>2009-12-13T12:00:23Z</time>
      </trkpt>
      <trkpt lat="46.01177" lon="3.69209">
        <ele>732</ele>
        <time>2009-12-13T12:00:23Z</time>
      </trkpt>
      <trkpt lat="46.01216" lon="3.69187">
        <ele>738</ele>
        <time>2009-12-13T12:00:23Z</time>
      </trkpt>
      <trkpt lat="46.01337" lon="3.69177">
        <ele>743</ele>
        <time>2009-12-13T12:00:23Z</time>
      </trkpt>
      <trkpt lat="46.01387" lon="3.69159">
        <ele>740</ele>
        <time>2009-12-13T12:00:23Z</time>
      </trkpt>
      <trkpt lat="46.0137" lon="3.69094">
        <ele>732</ele>
        <time>2009-12-13T12:00:23Z</time>
      </trkpt>
      <trkpt lat="46.01364" lon="3.69036">
        <ele>724</ele>
        <time>2009-12-13T12:00:23Z</time>
      </trkpt>
      <trkpt lat="46.01385" lon="3.68975">
        <ele>715</ele>
        <time>2009-12-13T12:00:23Z</time>
      </trkpt>
      <trkpt lat="46.01399" lon="3.68914">
        <ele>709</ele>
        <time>2009-12-13T12:00:23Z</time>
      </trkpt>
      <trkpt lat="46.01397" lon="3.68869">
        <ele>707</ele>
        <time>2009-12-13T12:00:23Z</time>
      </trkpt>
      <trkpt lat="46.01411" lon="3.68824">
        <ele>710</ele>
        <time>2009-12-13T12:00:23Z</time>
      </trkpt>
      <trkpt lat="46.0141" lon="3.6875">
        <ele>714</ele>
        <time>2009-12-13T12:00:23Z</time>
      </trkpt>
      <trkpt lat="46.01371" lon="3.68632">
        <ele>719</ele>
        <time>2009-12-13T12:00:23Z</time>
      </trkpt>
      <trkpt lat="46.01413" lon="3.68643">
        <ele>724</ele>
        <time>2009-12-13T12:00:23Z</time>
      </trkpt>
      <trkpt lat="46.01457" lon="3.68728">
        <ele>727</ele>
        <time>2009-12-13T12:00:23Z</time>
      </trkpt>
      <trkpt lat="46.01484" lon="3.68761">
        <ele>729</ele>
        <time>2009-12-13T12:00:23Z</time>
      </trkpt>
      <trkpt lat="46.0154" lon="3.68798">
        <ele>735</ele>
        <time>2009-12-13T12:00:23Z</time>
      </trkpt>
      <trkpt lat="46.01623" lon="3.68813">
        <ele>744</ele>
        <time>2009-12-13T12:00:23Z</time>
      </trkpt>
      <trkpt lat="46.01711" lon="3.68818">
        <ele>755</ele>
        <time>2009-12-13T12:00:23Z</time>
      </trkpt>
      <trkpt lat="46.0178" lon="3.6882">
        <ele>759</ele>
        <time>2009-12-13T12:00:23Z</time>
      </trkpt>
      <trkpt lat="46.01841" lon="3.68809">
        <ele>758</ele>
        <time>2009-12-13T12:00:23Z</time>
      </trkpt>
      <trkpt lat="46.01861" lon="3.68838">
        <ele>758</ele>
        <time>2009-12-13T12:00:23Z</time>
      </trkpt>
      <trkpt lat="46.01882" lon="3.68974">
        <ele>763</ele>
        <time>2009-12-13T12:00:23Z</time>
      </trkpt>
      <trkpt lat="46.01897" lon="3.69">
        <ele>764</ele>
        <time>2009-12-13T12:00:23Z</time>
      </trkpt>
      <trkpt lat="46.01935" lon="3.6904">
        <ele>764</ele>
        <time>2009-12-13T12:00:23Z</time>
      </trkpt>
      <trkpt lat="46.01996" lon="3.69064">
        <ele>767</ele>
        <time>2009-12-13T12:00:23Z</time>
      </trkpt>
      <trkpt lat="46.02049" lon="3.69088">
        <ele>768</ele>
        <time>2009-12-13T12:00:23Z</time>
      </trkpt>
      <trkpt lat="46.02083" lon="3.69112">
        <ele>767</ele>
        <time>2009-12-13T12:00:23Z</time>
      </trkpt>
      <trkpt lat="46.021" lon="3.6917">
        <ele>770</ele>
        <time>2009-12-13T12:00:23Z</time>
      </trkpt>
      <trkpt lat="46.02117" lon="3.69267">
        <ele>783</ele>
        <time>2009-12-13T12:00:23Z</time>
      </trkpt>
      <trkpt lat="46.02182" lon="3.69285">
        <ele>792</ele>
        <time>2009-12-13T12:00:23Z</time>
      </trkpt>
      <trkpt lat="46.02247" lon="3.693">
        <ele>799</ele>
        <time>2009-12-13T12:00:23Z</time>
      </trkpt>
      <trkpt lat="46.02319" lon="3.69292">
        <ele>802</ele>
        <time>2009-12-13T12:00:23Z</time>
      </trkpt>
      <trkpt lat="46.0236" lon="3.6928">
        <ele>804</ele>
        <time>2009-12-13T12:00:23Z</time>
      </trkpt>
      <trkpt lat="46.02419" lon="3.69249">
        <ele>808</ele>
        <time>2009-12-13T12:00:23Z</time>
      </trkpt>
      <trkpt lat="46.02457" lon="3.69234">
        <ele>813</ele>
        <time>2009-12-13T12:00:23Z</time>
      </trkpt>
      <trkpt lat="46.02541" lon="3.692">
        <ele>827</ele>
        <time>2009-12-13T12:00:23Z</time>
      </trkpt>
      <trkpt lat="46.02597" lon="3.69195">
        <ele>836</ele>
        <time>2009-12-13T12:00:23Z</time>
      </trkpt>
      <trkpt lat="46.02653" lon="3.69181">
        <ele>839</ele>
        <time>2009-12-13T12:00:23Z</time>
      </trkpt>
      <trkpt lat="46.02702" lon="3.69217">
        <ele>847</ele>
        <time>2009-12-13T12:00:23Z</time>
      </trkpt>
      <trkpt lat="46.02733" lon="3.69254">
        <ele>852</ele>
        <time>2009-12-13T12:00:23Z</time>
      </trkpt>
      <trkpt lat="46.02758" lon="3.69293">
        <ele>857</ele>
        <time>2009-12-13T12:00:23Z</time>
      </trkpt>
      <trkpt lat="46.02796" lon="3.69317">
        <ele>864</ele>
        <time>2009-12-13T12:00:23Z</time>
      </trkpt>
      <trkpt lat="46.02881" lon="3.69303">
        <ele>862</ele>
        <time>2009-12-13T12:00:23Z</time>
      </trkpt>
      <trkpt lat="46.02942" lon="3.69294">
        <ele>856</ele>
        <time>2009-12-13T12:00:23Z</time>
      </trkpt>
      <trkpt lat="46.03082" lon="3.69227">
        <ele>844</ele>
        <time>2009-12-13T12:00:23Z</time>
      </trkpt>
      <trkpt lat="46.03155" lon="3.69196">
        <ele>832</ele>
        <time>2009-12-13T12:00:23Z</time>
      </trkpt>
      <trkpt lat="46.03239" lon="3.6915">
        <ele>818</ele>
        <time>2009-12-13T12:00:23Z</time>
      </trkpt>
      <trkpt lat="46.03308" lon="3.69139">
        <ele>802</ele>
        <time>2009-12-13T12:00:23Z</time>
      </trkpt>
      <trkpt lat="46.03353" lon="3.69133">
        <ele>792</ele>
        <time>2009-12-13T12:00:23Z</time>
      </trkpt>
      <trkpt lat="46.03399" lon="3.69115">
        <ele>784</ele>
        <time>2009-12-13T12:00:23Z</time>
      </trkpt>
      <trkpt lat="46.03421" lon="3.69103">
        <ele>780</ele>
        <time>2009-12-13T12:00:23Z</time>
      </trkpt>
      <trkpt lat="46.03437" lon="3.69087">
        <ele>777</ele>
        <time>2009-12-13T12:00:23Z</time>
      </trkpt>
      <trkpt lat="46.0342" lon="3.69051">
        <ele>778</ele>
        <time>2009-12-13T12:00:23Z</time>
      </trkpt>
      <trkpt lat="46.03391" lon="3.68982">
        <ele>778</ele>
        <time>2009-12-13T12:00:23Z</time>
      </trkpt>
      <trkpt lat="46.03385" lon="3.68911">
        <ele>779</ele>
        <time>2009-12-13T12:00:23Z</time>
      </trkpt>
      <trkpt lat="46.03391" lon="3.6885">
        <ele>783</ele>
        <time>2009-12-13T12:00:23Z</time>
      </trkpt>
      <trkpt lat="46.034" lon="3.68789">
        <ele>786</ele>
        <time>2009-12-13T12:00:23Z</time>
      </trkpt>
      <trkpt lat="46.03408" lon="3.68728">
        <ele>788</ele>
        <time>2009-12-13T12:00:23Z</time>
      </trkpt>
      <trkpt lat="46.03384" lon="3.68659">
        <ele>797</ele>
        <time>2009-12-13T12:00:23Z</time>
      </trkpt>
      <trkpt lat="46.03373" lon="3.68601">
        <ele>799</ele>
        <time>2009-12-13T12:00:23Z</time>
      </trkpt>
      <trkpt lat="46.03367" lon="3.68556">
        <ele>798</ele>
        <time>2009-12-13T12:00:23Z</time>
      </trkpt>
      <trkpt lat="46.03334" lon="3.68497">
        <ele>801</ele>
        <time>2009-12-13T12:00:23Z</time>
      </trkpt>
      <trkpt lat="46.03319" lon="3.68451">
        <ele>802</ele>
        <time>2009-12-13T12:00:23Z</time>
      </trkpt>
      <trkpt lat="46.0332" lon="3.6837">
        <ele>798</ele>
        <time>2009-12-13T12:00:23Z</time>
      </trkpt>
      <trkpt lat="46.03323" lon="3.68296">
        <ele>799</ele>
        <time>2009-12-13T12:00:23Z</time>
      </trkpt>
      <trkpt lat="46.03328" lon="3.68232">
        <ele>799</ele>
        <time>2009-12-13T12:00:23Z</time>
      </trkpt>
      <trkpt lat="46.03333" lon="3.68187">
        <ele>798</ele>
        <time>2009-12-13T12:00:23Z</time>
      </trkpt>
      <trkpt lat="46.03334" lon="3.68157">
        <ele>801</ele>
        <time>2009-12-13T12:00:23Z</time>
      </trkpt>
      <trkpt lat="46.03357" lon="3.68129">
        <ele>802</ele>
        <time>2009-12-13T12:00:23Z</time>
      </trkpt>
      <trkpt lat="46.03388" lon="3.68097">
        <ele>807</ele>
        <time>2009-12-13T12:00:23Z</time>
      </trkpt>
      <trkpt lat="46.03411" lon="3.68124">
        <ele>802</ele>
        <time>2009-12-13T12:00:23Z</time>
      </trkpt>
      <trkpt lat="46.03442" lon="3.68147">
        <ele>797</ele>
        <time>2009-12-13T12:00:23Z</time>
      </trkpt>
      <trkpt lat="46.03475" lon="3.68167">
        <ele>795</ele>
        <time>2009-12-13T12:00:23Z</time>
      </trkpt>
      <trkpt lat="46.03488" lon="3.68216">
        <ele>787</ele>
        <time>2009-12-13T12:00:23Z</time>
      </trkpt>
      <trkpt lat="46.03519" lon="3.68262">
        <ele>779</ele>
        <time>2009-12-13T12:00:23Z</time>
      </trkpt>
      <trkpt lat="46.03571" lon="3.68267">
        <ele>776</ele>
        <time>2009-12-13T12:00:23Z</time>
      </trkpt>
      <trkpt lat="46.03609" lon="3.68268">
        <ele>768</ele>
        <time>2009-12-13T12:00:23Z</time>
      </trkpt>
      <trkpt lat="46.03648" lon="3.6823">
        <ele>770</ele>
        <time>2009-12-13T12:00:23Z</time>
      </trkpt>
      <trkpt lat="46.03689" lon="3.68202">
        <ele>764</ele>
        <time>2009-12-13T12:00:23Z</time>
      </trkpt>
      <trkpt lat="46.03743" lon="3.6818">
        <ele>745</ele>
        <time>2009-12-13T12:00:23Z</time>
      </trkpt>
      <trkpt lat="46.0379" lon="3.68146">
        <ele>735</ele>
        <time>2009-12-13T12:00:23Z</time>
      </trkpt>
      <trkpt lat="46.03818" lon="3.68124">
        <ele>731</ele>
        <time>2009-12-13T12:00:23Z</time>
      </trkpt>
      <trkpt lat="46.0384" lon="3.68115">
        <ele>726</ele>
        <time>2009-12-13T12:00:23Z</time>
      </trkpt>
      <trkpt lat="46.03863" lon="3.68083">
        <ele>725</ele>
        <time>2009-12-13T12:00:23Z</time>
      </trkpt>
      <trkpt lat="46.03886" lon="3.68058">
        <ele>720</ele>
        <time>2009-12-13T12:00:23Z</time>
      </trkpt>
      <trkpt lat="46.03904" lon="3.68026">
        <ele>718</ele>
        <time>2009-12-13T12:00:23Z</time>
      </trkpt>
      <trkpt lat="46.03912" lon="3.67991">
        <ele>716</ele>
        <time>2009-12-13T12:00:23Z</time>
      </trkpt>
      <trkpt lat="46.03901" lon="3.67949">
        <ele>716</ele>
        <time>2009-12-13T12:00:23Z</time>
      </trkpt>
      <trkpt lat="46.03901" lon="3.6791">
        <ele>712</ele>
        <time>2009-12-13T12:00:23Z</time>
      </trkpt>
      <trkpt lat="46.03915" lon="3.67868">
        <ele>706</ele>
        <time>2009-12-13T12:00:23Z</time>
      </trkpt>
      <trkpt lat="46.03922" lon="3.67833">
        <ele>703</ele>
        <time>2009-12-13T12:00:23Z</time>
      </trkpt>
      <trkpt lat="46.03932" lon="3.67785">
        <ele>702</ele>
        <time>2009-12-13T12:00:23Z</time>
      </trkpt>
      <trkpt lat="46.03941" lon="3.67743">
        <ele>701</ele>
        <time>2009-12-13T12:00:23Z</time>
      </trkpt>
      <trkpt lat="46.03947" lon="3.67694">
        <ele>700</ele>
        <time>2009-12-13T12:00:23Z</time>
      </trkpt>
      <trkpt lat="46.03961" lon="3.6764">
        <ele>693</ele>
        <time>2009-12-13T12:00:23Z</time>
      </trkpt>
      <trkpt lat="46.03963" lon="3.67608">
        <ele>690</ele>
        <time>2009-12-13T12:00:23Z</time>
      </trkpt>
      <trkpt lat="46.04" lon="3.67586">
        <ele>682</ele>
        <time>2009-12-13T12:00:23Z</time>
      </trkpt>
      <trkpt lat="46.04027" lon="3.67587">
        <ele>678</ele>
        <time>2009-12-13T12:00:23Z</time>
      </trkpt>
      <trkpt lat="46.0406" lon="3.67607">
        <ele>673</ele>
        <time>2009-12-13T12:00:23Z</time>
      </trkpt>
      <trkpt lat="46.04103" lon="3.67614">
        <ele>665</ele>
        <time>2009-12-13T12:00:23Z</time>
      </trkpt>
      <trkpt lat="46.0413" lon="3.67615">
        <ele>659</ele>
        <time>2009-12-13T12:00:23Z</time>
      </trkpt>
      <trkpt lat="46.04143" lon="3.67667">
        <ele>656</ele>
        <time>2009-12-13T12:00:23Z</time>
      </trkpt>
      <trkpt lat="46.04179" lon="3.67652">
        <ele>646</ele>
        <time>2009-12-13T12:00:23Z</time>
      </trkpt>
      <trkpt lat="46.04208" lon="3.67639">
        <ele>638</ele>
        <time>2009-12-13T12:00:23Z</time>
      </trkpt>
      <trkpt lat="46.04231" lon="3.67634">
        <ele>638</ele>
        <time>2009-12-13T12:00:23Z</time>
      </trkpt>
      <trkpt lat="46.04258" lon="3.67644">
        <ele>637</ele>
        <time>2009-12-13T12:00:23Z</time>
      </trkpt>
      <trkpt lat="46.0428" lon="3.6767">
        <ele>638</ele>
        <time>2009-12-13T12:00:23Z</time>
      </trkpt>
      <trkpt lat="46.04307" lon="3.67674">
        <ele>643</ele>
        <time>2009-12-13T12:00:23Z</time>
      </trkpt>
      <trkpt lat="46.04329" lon="3.67681">
        <ele>644</ele>
        <time>2009-12-13T12:00:23Z</time>
      </trkpt>
      <trkpt lat="46.04363" lon="3.67682">
        <ele>646</ele>
        <time>2009-12-13T12:00:23Z</time>
      </trkpt>
      <trkpt lat="46.04408" lon="3.6767">
        <ele>648</ele>
        <time>2009-12-13T12:00:23Z</time>
      </trkpt>
      <trkpt lat="46.04433" lon="3.67668">
        <ele>648</ele>
        <time>2009-12-13T12:00:23Z</time>
      </trkpt>
      <trkpt lat="46.0446" lon="3.67665">
        <ele>647</ele>
        <time>2009-12-13T12:00:23Z</time>
      </trkpt>
      <trkpt lat="46.04466" lon="3.6771">
        <ele>636</ele>
        <time>2009-12-13T12:00:23Z</time>
      </trkpt>
      <trkpt lat="46.04484" lon="3.67737">
        <ele>626</ele>
        <time>2009-12-13T12:00:23Z</time>
      </trkpt>
      <trkpt lat="46.04499" lon="3.67747">
        <ele>623</ele>
        <time>2009-12-13T12:00:23Z</time>
      </trkpt>
      <trkpt lat="46.04528" lon="3.6776">
        <ele>618</ele>
        <time>2009-12-13T12:00:23Z</time>
      </trkpt>
      <trkpt lat="46.04573" lon="3.678">
        <ele>609</ele>
        <time>2009-12-13T12:00:23Z</time>
      </trkpt>
      <trkpt lat="46.0462" lon="3.6783">
        <ele>603</ele>
        <time>2009-12-13T12:00:23Z</time>
      </trkpt>
      <trkpt lat="46.04656" lon="3.67847">
        <ele>599</ele>
        <time>2009-12-13T12:00:23Z</time>
      </trkpt>
      <trkpt lat="46.04674" lon="3.67822">
        <ele>602</ele>
        <time>2009-12-13T12:00:23Z</time>
      </trkpt>
      <trkpt lat="46.04708" lon="3.67791">
        <ele>606</ele>
        <time>2009-12-13T12:00:23Z</time>
      </trkpt>
      <trkpt lat="46.04749" lon="3.67759">
        <ele>609</ele>
        <time>2009-12-13T12:00:23Z</time>
      </trkpt>
      <trkpt lat="46.04772" lon="3.67744">
        <ele>610</ele>
        <time>2009-12-13T12:00:23Z</time>
      </trkpt>
      <trkpt lat="46.04799" lon="3.67731">
        <ele>609</ele>
        <time>2009-12-13T12:00:23Z</time>
      </trkpt>
      <trkpt lat="46.04869" lon="3.67704">
        <ele>602</ele>
        <time>2009-12-13T12:00:23Z</time>
      </trkpt>
      <trkpt lat="46.04909" lon="3.67686">
        <ele>596</ele>
        <time>2009-12-13T12:00:23Z</time>
      </trkpt>
      <trkpt lat="46.04941" lon="3.67664">
        <ele>591</ele>
        <time>2009-12-13T12:00:23Z</time>
      </trkpt>
      <trkpt lat="46.04964" lon="3.67645">
        <ele>589</ele>
        <time>2009-12-13T12:00:23Z</time>
      </trkpt>
      <trkpt lat="46.04987" lon="3.67607">
        <ele>590</ele>
        <time>2009-12-13T12:00:23Z</time>
      </trkpt>
      <trkpt lat="46.04987" lon="3.67575">
        <ele>592</ele>
        <time>2009-12-13T12:00:23Z</time>
      </trkpt>
      <trkpt lat="46.05008" lon="3.6752">
        <ele>588</ele>
        <time>2009-12-13T12:00:23Z</time>
      </trkpt>
      <trkpt lat="46.05033" lon="3.67479">
        <ele>586</ele>
        <time>2009-12-13T12:00:23Z</time>
      </trkpt>
      <trkpt lat="46.05052" lon="3.67421">
        <ele>586</ele>
        <time>2009-12-13T12:00:23Z</time>
      </trkpt>
      <trkpt lat="46.05053" lon="3.67363">
        <ele>584</ele>
        <time>2009-12-13T12:00:23Z</time>
      </trkpt>
      <trkpt lat="46.05049" lon="3.67318">
        <ele>585</ele>
        <time>2009-12-13T12:00:23Z</time>
      </trkpt>
      <trkpt lat="46.05049" lon="3.67295">
        <ele>587</ele>
        <time>2009-12-13T12:00:23Z</time>
      </trkpt>
      <trkpt lat="46.05052" lon="3.67272">
        <ele>590</ele>
        <time>2009-12-13T12:00:23Z</time>
      </trkpt>
      <trkpt lat="46.05092" lon="3.67254">
        <ele>589</ele>
        <time>2009-12-13T12:00:23Z</time>
      </trkpt>
      <trkpt lat="46.05147" lon="3.6723">
        <ele>588</ele>
        <time>2009-12-13T12:00:23Z</time>
      </trkpt>
      <trkpt lat="46.05178" lon="3.67208">
        <ele>586</ele>
        <time>2009-12-13T12:00:23Z</time>
      </trkpt>
      <trkpt lat="46.05217" lon="3.67134">
        <ele>588</ele>
        <time>2009-12-13T12:00:23Z</time>
      </trkpt>
      <trkpt lat="46.05238" lon="3.67086">
        <ele>585</ele>
        <time>2009-12-13T12:00:23Z</time>
      </trkpt>
      <trkpt lat="46.05243" lon="3.67028">
        <ele>584</ele>
        <time>2009-12-13T12:00:23Z</time>
      </trkpt>
      <trkpt lat="46.05258" lon="3.66971">
        <ele>580</ele>
        <time>2009-12-13T12:00:23Z</time>
      </trkpt>
      <trkpt lat="46.05274" lon="3.66929">
        <ele>584</ele>
        <time>2009-12-13T12:00:23Z</time>
      </trkpt>
      <trkpt lat="46.0529" lon="3.66907">
        <ele>587</ele>
        <time>2009-12-13T12:00:23Z</time>
      </trkpt>
      <trkpt lat="46.05313" lon="3.66894">
        <ele>588</ele>
        <time>2009-12-13T12:00:23Z</time>
      </trkpt>
      <trkpt lat="46.05315" lon="3.66846">
        <ele>592</ele>
        <time>2009-12-13T12:00:23Z</time>
      </trkpt>
      <trkpt lat="46.05314" lon="3.66797">
        <ele>595</ele>
        <time>2009-12-13T12:00:23Z</time>
      </trkpt>
      <trkpt lat="46.05287" lon="3.66755">
        <ele>601</ele>
        <time>2009-12-13T12:00:23Z</time>
      </trkpt>
      <trkpt lat="46.0527" lon="3.66719">
        <ele>605</ele>
        <time>2009-12-13T12:00:23Z</time>
      </trkpt>
      <trkpt lat="46.0527" lon="3.66674">
        <ele>605</ele>
        <time>2009-12-13T12:00:23Z</time>
      </trkpt>
      <trkpt lat="46.05271" lon="3.66615">
        <ele>606</ele>
        <time>2009-12-13T12:00:23Z</time>
      </trkpt>
      <trkpt lat="46.05226" lon="3.66611">
        <ele>612</ele>
        <time>2009-12-13T12:00:23Z</time>
      </trkpt>
      <trkpt lat="46.05176" lon="3.6661">
        <ele>617</ele>
        <time>2009-12-13T12:00:23Z</time>
      </trkpt>
      <trkpt lat="46.05133" lon="3.66654">
        <ele>623</ele>
        <time>2009-12-13T12:00:23Z</time>
      </trkpt>
      <trkpt lat="46.05086" lon="3.66659">
        <ele>627</ele>
        <time>2009-12-13T12:00:23Z</time>
      </trkpt>
      <trkpt lat="46.05066" lon="3.66607">
        <ele>627</ele>
        <time>2009-12-13T12:00:23Z</time>
      </trkpt>
      <trkpt lat="46.05047" lon="3.66542">
        <ele>627</ele>
        <time>2009-12-13T12:00:23Z</time>
      </trkpt>
      <trkpt lat="46.05032" lon="3.6648">
        <ele>630</ele>
        <time>2009-12-13T12:00:23Z</time>
      </trkpt>
      <trkpt lat="46.05003" lon="3.66451">
        <ele>634</ele>
        <time>2009-12-13T12:00:23Z</time>
      </trkpt>
      <trkpt lat="46.04997" lon="3.66402">
        <ele>635</ele>
        <time>2009-12-13T12:00:23Z</time>
      </trkpt>
      <trkpt lat="46.05006" lon="3.66351">
        <ele>637</ele>
        <time>2009-12-13T12:00:23Z</time>
      </trkpt>
      <trkpt lat="46.05007" lon="3.66315">
        <ele>641</ele>
        <time>2009-12-13T12:00:23Z</time>
      </trkpt>
      <trkpt lat="46.04985" lon="3.66282">
        <ele>645</ele>
        <time>2009-12-13T12:00:23Z</time>
      </trkpt>
      <trkpt lat="46.04962" lon="3.66265">
        <ele>647</ele>
        <time>2009-12-13T12:00:23Z</time>
      </trkpt>
      <trkpt lat="46.0496" lon="3.66243">
        <ele>646</ele>
        <time>2009-12-13T12:00:23Z</time>
      </trkpt>
      <trkpt lat="46.04961" lon="3.6622">
        <ele>643</ele>
        <time>2009-12-13T12:00:23Z</time>
      </trkpt>
      <trkpt lat="46.0497" lon="3.66207">
        <ele>640</ele>
        <time>2009-12-13T12:00:23Z</time>
      </trkpt>
      <trkpt lat="46.05008" lon="3.66208">
        <ele>636</ele>
        <time>2009-12-13T12:00:23Z</time>
      </trkpt>
      <trkpt lat="46.0508" lon="3.6621">
        <ele>625</ele>
        <time>2009-12-13T12:00:23Z</time>
      </trkpt>
      <trkpt lat="46.05152" lon="3.66163">
        <ele>610</ele>
        <time>2009-12-13T12:00:23Z</time>
      </trkpt>
      <trkpt lat="46.05198" lon="3.66113">
        <ele>600</ele>
        <time>2009-12-13T12:00:23Z</time>
      </trkpt>
      <trkpt lat="46.05243" lon="3.66095">
        <ele>593</ele>
        <time>2009-12-13T12:00:23Z</time>
      </trkpt>
      <trkpt lat="46.05315" lon="3.66129">
        <ele>583</ele>
        <time>2009-12-13T12:00:23Z</time>
      </trkpt>
      <trkpt lat="46.05375" lon="3.66175">
        <ele>580</ele>
        <time>2009-12-13T12:00:23Z</time>
      </trkpt>
      <trkpt lat="46.05411" lon="3.66202">
        <ele>582</ele>
        <time>2009-12-13T12:00:23Z</time>
      </trkpt>
      <trkpt lat="46.05483" lon="3.66191">
        <ele>581</ele>
        <time>2009-12-13T12:00:23Z</time>
      </trkpt>
      <trkpt lat="46.05541" lon="3.66173">
        <ele>581</ele>
        <time>2009-12-13T12:00:23Z</time>
      </trkpt>
      <trkpt lat="46.05526" lon="3.66124">
        <ele>579</ele>
        <time>2009-12-13T12:00:23Z</time>
      </trkpt>
      <trkpt lat="46.05518" lon="3.66075">
        <ele>577</ele>
        <time>2009-12-13T12:00:23Z</time>
      </trkpt>
      <trkpt lat="46.05503" lon="3.66023">
        <ele>575</ele>
        <time>2009-12-13T12:00:23Z</time>
      </trkpt>
      <trkpt lat="46.05492" lon="3.65978">
        <ele>574</ele>
        <time>2009-12-13T12:00:23Z</time>
      </trkpt>
      <trkpt lat="46.05448" lon="3.65873">
        <ele>571</ele>
        <time>2009-12-13T12:00:23Z</time>
      </trkpt>
      <trkpt lat="46.05361" lon="3.65655">
        <ele>558</ele>
        <time>2009-12-13T12:00:23Z</time>
      </trkpt>
      <trkpt lat="46.05371" lon="3.65594">
        <ele>558</ele>
        <time>2009-12-13T12:00:23Z</time>
      </trkpt>
      <trkpt lat="46.05403" lon="3.65504">
        <ele>560</ele>
        <time>2009-12-13T12:00:23Z</time>
      </trkpt>
      <trkpt lat="46.05379" lon="3.65429">
        <ele>565</ele>
        <time>2009-12-13T12:00:23Z</time>
      </trkpt>
      <trkpt lat="46.05311" lon="3.65298">
        <ele>577</ele>
        <time>2009-12-13T12:00:23Z</time>
      </trkpt>
      <trkpt lat="46.0528" lon="3.65246">
        <ele>581</ele>
        <time>2009-12-13T12:00:23Z</time>
      </trkpt>
      <trkpt lat="46.05258" lon="3.65174">
        <ele>582</ele>
        <time>2009-12-13T12:00:23Z</time>
      </trkpt>
      <trkpt lat="46.05259" lon="3.65152">
        <ele>582</ele>
        <time>2009-12-13T12:00:23Z</time>
      </trkpt>
      <trkpt lat="46.05277" lon="3.65136">
        <ele>580</ele>
        <time>2009-12-13T12:00:23Z</time>
      </trkpt>
      <trkpt lat="46.05297" lon="3.6512">
        <ele>577</ele>
        <time>2009-12-13T12:00:23Z</time>
      </trkpt>
      <trkpt lat="46.05324" lon="3.65111">
        <ele>573</ele>
        <time>2009-12-13T12:00:23Z</time>
      </trkpt>
      <trkpt lat="46.05351" lon="3.65112">
        <ele>570</ele>
        <time>2009-12-13T12:00:23Z</time>
      </trkpt>
      <trkpt lat="46.05383" lon="3.65112">
        <ele>567</ele>
        <time>2009-12-13T12:00:23Z</time>
      </trkpt>
      <trkpt lat="46.05412" lon="3.65116">
        <ele>564</ele>
        <time>2009-12-13T12:00:23Z</time>
      </trkpt>
      <trkpt lat="46.05457" lon="3.65124">
        <ele>561</ele>
        <time>2009-12-13T12:00:23Z</time>
      </trkpt>
      <trkpt lat="46.05484" lon="3.65125">
        <ele>559</ele>
        <time>2009-12-13T12:00:23Z</time>
      </trkpt>
      <trkpt lat="46.05509" lon="3.65112">
        <ele>557</ele>
        <time>2009-12-13T12:00:23Z</time>
      </trkpt>
      <trkpt lat="46.05555" lon="3.65052">
        <ele>552</ele>
        <time>2009-12-13T12:00:23Z</time>
      </trkpt>
      <trkpt lat="46.05614" lon="3.6495">
        <ele>549</ele>
        <time>2009-12-13T12:00:23Z</time>
      </trkpt>
      <trkpt lat="46.05642" lon="3.64899">
        <ele>548</ele>
        <time>2009-12-13T12:00:23Z</time>
      </trkpt>
      <trkpt lat="46.05645" lon="3.64844">
        <ele>548</ele>
        <time>2009-12-13T12:00:23Z</time>
      </trkpt>
      <trkpt lat="46.05688" lon="3.64823">
        <ele>550</ele>
        <time>2009-12-13T12:00:23Z</time>
      </trkpt>
      <trkpt lat="46.05721" lon="3.64823">
        <ele>553</ele>
        <time>2009-12-13T12:00:23Z</time>
      </trkpt>
      <trkpt lat="46.05799" lon="3.649">
        <ele>556</ele>
        <time>2009-12-13T12:00:23Z</time>
      </trkpt>
      <trkpt lat="46.05835" lon="3.649">
        <ele>557</ele>
        <time>2009-12-13T12:00:23Z</time>
      </trkpt>
      <trkpt lat="46.05885" lon="3.64876">
        <ele>561</ele>
        <time>2009-12-13T12:00:23Z</time>
      </trkpt>
      <trkpt lat="46.05921" lon="3.64899">
        <ele>562</ele>
        <time>2009-12-13T12:00:23Z</time>
      </trkpt>
      <trkpt lat="46.05974" lon="3.64997">
        <ele>565</ele>
        <time>2009-12-13T12:00:23Z</time>
      </trkpt>
      <trkpt lat="46.06062" lon="3.65161">
        <ele>573</ele>
        <time>2009-12-13T12:00:23Z</time>
      </trkpt>
      <trkpt lat="46.06108" lon="3.6522">
        <ele>574</ele>
        <time>2009-12-13T12:00:23Z</time>
      </trkpt>
      <trkpt lat="46.06127" lon="3.65166">
        <ele>577</ele>
        <time>2009-12-13T12:00:23Z</time>
      </trkpt>
      <trkpt lat="46.06134" lon="3.65114">
        <ele>579</ele>
        <time>2009-12-13T12:00:23Z</time>
      </trkpt>
      <trkpt lat="46.06174" lon="3.64986">
        <ele>581</ele>
        <time>2009-12-13T12:00:23Z</time>
      </trkpt>
      <trkpt lat="46.06214" lon="3.64858">
        <ele>577</ele>
        <time>2009-12-13T12:00:23Z</time>
      </trkpt>
      <trkpt lat="46.06217" lon="3.64777">
        <ele>575</ele>
        <time>2009-12-13T12:00:23Z</time>
      </trkpt>
      <trkpt lat="46.06215" lon="3.64703">
        <ele>574</ele>
        <time>2009-12-13T12:00:23Z</time>
      </trkpt>
      <trkpt lat="46.06201" lon="3.64602">
        <ele>572</ele>
        <time>2009-12-13T12:00:23Z</time>
      </trkpt>
      <trkpt lat="46.06178" lon="3.64414">
        <ele>571</ele>
        <time>2009-12-13T12:00:23Z</time>
      </trkpt>
      <trkpt lat="46.06163" lon="3.64359">
        <ele>571</ele>
        <time>2009-12-13T12:00:23Z</time>
      </trkpt>
      <trkpt lat="46.06112" lon="3.64316">
        <ele>570</ele>
        <time>2009-12-13T12:00:23Z</time>
      </trkpt>
      <trkpt lat="46.0611" lon="3.64303">
        <ele>570</ele>
        <time>2009-12-13T12:00:23Z</time>
      </trkpt>
      <trkpt lat="46.06072" lon="3.6424">
        <ele>564</ele>
        <time>2009-12-13T12:00:23Z</time>
      </trkpt>
      <trkpt lat="46.06035" lon="3.64143">
        <ele>556</ele>
        <time>2009-12-13T12:00:23Z</time>
      </trkpt>
      <trkpt lat="46.05987" lon="3.64044">
        <ele>551</ele>
        <time>2009-12-13T12:00:23Z</time>
      </trkpt>
      <trkpt lat="46.05947" lon="3.63976">
        <ele>548</ele>
        <time>2009-12-13T12:00:23Z</time>
      </trkpt>
      <trkpt lat="46.05936" lon="3.63933">
        <ele>544</ele>
        <time>2009-12-13T12:00:23Z</time>
      </trkpt>
      <trkpt lat="46.05932" lon="3.63904">
        <ele>540</ele>
        <time>2009-12-13T12:00:23Z</time>
      </trkpt>
      <trkpt lat="46.05879" lon="3.63835">
        <ele>527</ele>
        <time>2009-12-13T12:00:23Z</time>
      </trkpt>
      <trkpt lat="46.05855" lon="3.63773">
        <ele>523</ele>
        <time>2009-12-13T12:00:23Z</time>
      </trkpt>
      <trkpt lat="46.05846" lon="3.63741">
        <ele>522</ele>
        <time>2009-12-13T12:00:23Z</time>
      </trkpt>
      <trkpt lat="46.0584" lon="3.63686">
        <ele>521</ele>
        <time>2009-12-13T12:00:23Z</time>
      </trkpt>
      <trkpt lat="46.05836" lon="3.63627">
        <ele>516</ele>
        <time>2009-12-13T12:00:23Z</time>
      </trkpt>
      <trkpt lat="46.05815" lon="3.63559">
        <ele>508</ele>
        <time>2009-12-13T12:00:23Z</time>
      </trkpt>
      <trkpt lat="46.05797" lon="3.63507">
        <ele>503</ele>
        <time>2009-12-13T12:00:23Z</time>
      </trkpt>
      <trkpt lat="46.05757" lon="3.63493">
        <ele>500</ele>
        <time>2009-12-13T12:00:23Z</time>
      </trkpt>
      <trkpt lat="46.05717" lon="3.63492">
        <ele>503</ele>
        <time>2009-12-13T12:00:23Z</time>
      </trkpt>
      <trkpt lat="46.05696" lon="3.63491">
        <ele>505</ele>
        <time>2009-12-13T12:00:23Z</time>
      </trkpt>
      <trkpt lat="46.05676" lon="3.63475">
        <ele>508</ele>
        <time>2009-12-13T12:00:23Z</time>
      </trkpt>
      <trkpt lat="46.0566" lon="3.63491">
        <ele>512</ele>
        <time>2009-12-13T12:00:23Z</time>
      </trkpt>
      <trkpt lat="46.05649" lon="3.63526">
        <ele>518</ele>
        <time>2009-12-13T12:00:23Z</time>
      </trkpt>
      <trkpt lat="46.05646" lon="3.63545">
        <ele>519</ele>
        <time>2009-12-13T12:00:23Z</time>
      </trkpt>
      <trkpt lat="46.05583" lon="3.63579">
        <ele>532</ele>
        <time>2009-12-13T12:00:23Z</time>
      </trkpt>
      <trkpt lat="46.05542" lon="3.63598">
        <ele>542</ele>
        <time>2009-12-13T12:00:23Z</time>
      </trkpt>
      <trkpt lat="46.05513" lon="3.63626">
        <ele>548</ele>
        <time>2009-12-13T12:00:23Z</time>
      </trkpt>
      <trkpt lat="46.05463" lon="3.63664">
        <ele>558</ele>
        <time>2009-12-13T12:00:23Z</time>
      </trkpt>
      <trkpt lat="46.05342" lon="3.63764">
        <ele>573</ele>
        <time>2009-12-13T12:00:23Z</time>
      </trkpt>
      <trkpt lat="46.05193" lon="3.63864">
        <ele>586</ele>
        <time>2009-12-13T12:00:23Z</time>
      </trkpt>
      <trkpt lat="46.0508" lon="3.63871">
        <ele>588</ele>
        <time>2009-12-13T12:00:23Z</time>
      </trkpt>
      <trkpt lat="46.0502" lon="3.63844">
        <ele>592</ele>
        <time>2009-12-13T12:00:23Z</time>
      </trkpt>
      <trkpt lat="46.04968" lon="3.63801">
        <ele>600</ele>
        <time>2009-12-13T12:00:23Z</time>
      </trkpt>
      <trkpt lat="46.04958" lon="3.63703">
        <ele>604</ele>
        <time>2009-12-13T12:00:23Z</time>
      </trkpt>
      <trkpt lat="46.04896" lon="3.63637">
        <ele>612</ele>
        <time>2009-12-13T12:00:23Z</time>
      </trkpt>
      <trkpt lat="46.04811" lon="3.63567">
        <ele>614</ele>
        <time>2009-12-13T12:00:23Z</time>
      </trkpt>
      <trkpt lat="46.04711" lon="3.63494">
        <ele>615</ele>
        <time>2009-12-13T12:00:23Z</time>
      </trkpt>
      <trkpt lat="46.04677" lon="3.63357">
        <ele>612</ele>
        <time>2009-12-13T12:00:23Z</time>
      </trkpt>
      <trkpt lat="46.04607" lon="3.63317">
        <ele>616</ele>
        <time>2009-12-13T12:00:23Z</time>
      </trkpt>
      <trkpt lat="46.04547" lon="3.63293">
        <ele>615</ele>
        <time>2009-12-13T12:00:23Z</time>
      </trkpt>
      <trkpt lat="46.04478" lon="3.63243">
        <ele>611</ele>
        <time>2009-12-13T12:00:23Z</time>
      </trkpt>
      <trkpt lat="46.04442" lon="3.632">
        <ele>608</ele>
        <time>2009-12-13T12:00:23Z</time>
      </trkpt>
      <trkpt lat="46.04424" lon="3.63222">
        <ele>608</ele>
        <time>2009-12-13T12:00:23Z</time>
      </trkpt>
      <trkpt lat="46.04391" lon="3.63305">
        <ele>601</ele>
        <time>2009-12-13T12:00:23Z</time>
      </trkpt>
      <trkpt lat="46.04361" lon="3.63392">
        <ele>598</ele>
        <time>2009-12-13T12:00:23Z</time>
      </trkpt>
      <trkpt lat="46.04308" lon="3.63488">
        <ele>592</ele>
        <time>2009-12-13T12:00:23Z</time>
      </trkpt>
      <trkpt lat="46.04254" lon="3.63567">
        <ele>584</ele>
        <time>2009-12-13T12:00:23Z</time>
      </trkpt>
      <trkpt lat="46.04176" lon="3.6362">
        <ele>592</ele>
        <time>2009-12-13T12:00:23Z</time>
      </trkpt>
      <trkpt lat="46.04106" lon="3.6369">
        <ele>597</ele>
        <time>2009-12-13T12:00:23Z</time>
      </trkpt>
      <trkpt lat="46.04055" lon="3.63785">
        <ele>597</ele>
        <time>2009-12-13T12:00:23Z</time>
      </trkpt>
      <trkpt lat="46.04002" lon="3.63897">
        <ele>590</ele>
        <time>2009-12-13T12:00:23Z</time>
      </trkpt>
      <trkpt lat="46.03956" lon="3.63986">
        <ele>581</ele>
        <time>2009-12-13T12:00:23Z</time>
      </trkpt>
      <trkpt lat="46.03874" lon="3.64068">
        <ele>573</ele>
        <time>2009-12-13T12:00:23Z</time>
      </trkpt>
      <trkpt lat="46.03793" lon="3.64121">
        <ele>568</ele>
        <time>2009-12-13T12:00:23Z</time>
      </trkpt>
      <trkpt lat="46.03711" lon="3.64168">
        <ele>559</ele>
        <time>2009-12-13T12:00:23Z</time>
      </trkpt>
      <trkpt lat="46.03689" lon="3.64154">
        <ele>557</ele>
        <time>2009-12-13T12:00:23Z</time>
      </trkpt>
      <trkpt lat="46.037" lon="3.6399">
        <ele>555</ele>
        <time>2009-12-13T12:00:23Z</time>
      </trkpt>
      <trkpt lat="46.03703" lon="3.63896">
        <ele>551</ele>
        <time>2009-12-13T12:00:23Z</time>
      </trkpt>
      <trkpt lat="46.03713" lon="3.63826">
        <ele>549</ele>
        <time>2009-12-13T12:00:23Z</time>
      </trkpt>
      <trkpt lat="46.03739" lon="3.63726">
        <ele>550</ele>
        <time>2009-12-13T12:00:23Z</time>
      </trkpt>
      <trkpt lat="46.03754" lon="3.63607">
        <ele>550</ele>
        <time>2009-12-13T12:00:23Z</time>
      </trkpt>
      <trkpt lat="46.03748" lon="3.63542">
        <ele>549</ele>
        <time>2009-12-13T12:00:23Z</time>
      </trkpt>
      <trkpt lat="46.03746" lon="3.63461">
        <ele>546</ele>
        <time>2009-12-13T12:00:23Z</time>
      </trkpt>
      <trkpt lat="46.03747" lon="3.6341">
        <ele>544</ele>
        <time>2009-12-13T12:00:23Z</time>
      </trkpt>
      <trkpt lat="46.03702" lon="3.63373">
        <ele>548</ele>
        <time>2009-12-13T12:00:23Z</time>
      </trkpt>
      <trkpt lat="46.03656" lon="3.63317">
        <ele>547</ele>
        <time>2009-12-13T12:00:23Z</time>
      </trkpt>
      <trkpt lat="46.03627" lon="3.633">
        <ele>546</ele>
        <time>2009-12-13T12:00:23Z</time>
      </trkpt>
      <trkpt lat="46.03559" lon="3.63318">
        <ele>550</ele>
        <time>2009-12-13T12:00:23Z</time>
      </trkpt>
      <trkpt lat="46.03528" lon="3.63308">
        <ele>552</ele>
        <time>2009-12-13T12:00:23Z</time>
      </trkpt>
      <trkpt lat="46.03524" lon="3.6323">
        <ele>553</ele>
        <time>2009-12-13T12:00:23Z</time>
      </trkpt>
      <trkpt lat="46.03507" lon="3.63123">
        <ele>559</ele>
        <time>2009-12-13T12:00:23Z</time>
      </trkpt>
      <trkpt lat="46.0349" lon="3.6309">
        <ele>561</ele>
        <time>2009-12-13T12:00:23Z</time>
      </trkpt>
      <trkpt lat="46.03454" lon="3.63035">
        <ele>563</ele>
        <time>2009-12-13T12:00:23Z</time>
      </trkpt>
      <trkpt lat="46.03394" lon="3.63027">
        <ele>572</ele>
        <time>2009-12-13T12:00:23Z</time>
      </trkpt>
      <trkpt lat="46.03369" lon="3.62994">
        <ele>572</ele>
        <time>2009-12-13T12:00:23Z</time>
      </trkpt>
      <trkpt lat="46.03292" lon="3.62843">
        <ele>568</ele>
        <time>2009-12-13T12:00:23Z</time>
      </trkpt>
      <trkpt lat="46.03266" lon="3.62794">
        <ele>568</ele>
        <time>2009-12-13T12:00:23Z</time>
      </trkpt>
      <trkpt lat="46.03258" lon="3.62684">
        <ele>570</ele>
        <time>2009-12-13T12:00:23Z</time>
      </trkpt>
      <trkpt lat="46.03259" lon="3.6262">
        <ele>571</ele>
        <time>2009-12-13T12:00:23Z</time>
      </trkpt>
      <trkpt lat="46.0326" lon="3.62555">
        <ele>574</ele>
        <time>2009-12-13T12:00:23Z</time>
      </trkpt>
      <trkpt lat="46.03253" lon="3.62497">
        <ele>577</ele>
        <time>2009-12-13T12:00:23Z</time>
      </trkpt>
      <trkpt lat="46.03274" lon="3.62455">
        <ele>575</ele>
        <time>2009-12-13T12:00:23Z</time>
      </trkpt>
      <trkpt lat="46.03311" lon="3.62427">
        <ele>571</ele>
        <time>2009-12-13T12:00:23Z</time>
      </trkpt>
      <trkpt lat="46.03394" lon="3.624">
        <ele>567</ele>
        <time>2009-12-13T12:00:23Z</time>
      </trkpt>
      <trkpt lat="46.03493" lon="3.62399">
        <ele>559</ele>
        <time>2009-12-13T12:00:23Z</time>
      </trkpt>
      <trkpt lat="46.03565" lon="3.62382">
        <ele>549</ele>
        <time>2009-12-13T12:00:23Z</time>
      </trkpt>
      <trkpt lat="46.03595" lon="3.62373">
        <ele>546</ele>
        <time>2009-12-13T12:00:23Z</time>
      </trkpt>
    </trkseg>
  </trk>
</gpx>